Location: Newark
(48.4472°N, 1.4892°E)
Time: 17:03:19
(UTC+00:00)

Transit 2A - Visible Passes

Search period start: 14 November 2019 00:00
Search period end: 24 November 2019 00:00
Orbit: 601 x 957 km, 66.7° (Epoch: 14 November)

Date Brightness Start Highest point End Pass type
(mag) Time Alt. Az. Time Alt. Az. Time Alt. Az.
19 Nov 8.0 18:54:25 10° NNW 18:54:57 12° N 18:54:57 12° N visible
20 Nov 7.7 18:20:34 10° N 18:21:46 14° N 18:21:46 14° N visible
21 Nov 7.5 17:46:48 10° N 17:48:39 13° NNE 17:48:39 13° NNE visible
21 Nov 8.3 19:28:48 10° NNW 19:29:08 12° NNW 19:29:08 12° NNW visible
22 Nov 7.6 17:13:16 10° N 17:14:30 11° NNE 17:15:33 10° NE visible
22 Nov 7.6 18:54:46 10° NNW 18:56:03 18° NNW 18:56:03 18° NNW visible
23 Nov 7.1 18:20:47 10° NNW 18:23:02 23° N 18:23:02 23° N visible
